Flag for Germany Weather past 2 weeks in Buchholz in der Nordheide, Lower Saxony, Germany

Now
79 °F

Passing clouds.


Feels Like: 80 °F
Forecast: 62 / 75 °F
Wind: 10 mph from Northeast

Location: Hamburg-Finkenwerder

Current Time: Jul 29, 2014 at 7:25:26 PM

Latest Report: Jul 29, 2014 at 6:50 PM


Visibility: N/A

Pressure: 29.77 "Hg

Humidity: 58%

Dew point: 63 °F

Location of Buchholz in der NordheideLocation

Historic Weather in Buchholz in der Nordheide — Graph

°F

Buchholz in der Nordheide temperature yesterday

Maximum temperature yesterday: 84 °F (at 4:50 PM)
Minimum temperature yesterday: 61 °F (at 5:50 AM)
Average temperature yesterday: 76 °F

Past Weeks' High & Low Weather Summary

 TemperatureHumidityPressure
High86 °F (Jul 18, 3:20 PM)100% (Jul 15, 5:20 AM)30.18 "Hg (Jul 15, 5:20 AM)
Low54 °F (Jul 17, 5:20 AM)37% (Jul 23, 3:50 PM)29.77 "Hg (Jul 29, 3:50 PM)
Average73 °F66%30.03 "Hg
* Reported Jul 14 6:20 PM — Jul 29 6:20 PM, Buchholz in der Nordheide, Weather by CustomWeather, © 2014

Note: Actual official high and low records may vary slightly from our data, if they occured in-between our weather recording intervals... More about our weather records

Advertising

Buchholz in der Nordheide weather history for previous 24 hours

 ConditionsComfort  
Time TempWeatherWind HumidityBarometerVisibility
6:20 PM
Jul 29
79 °FPassing clouds.7 mph65%29.77 "HgN/A
5:50 PM79 °FSunny.8 mph65%29.77 "Hg10 mi
5:20 PM79 °FSunny.9 mph65%29.77 "Hg10 mi
4:50 PM75 °FScattered clouds.12 mph78%29.77 "HgN/A
4:20 PM77 °FSprinkles. Partly sunny.15 mph65%29.77 "HgN/A
3:50 PM82 °FScattered clouds.7 mph51%29.77 "HgN/A
3:20 PM82 °FScattered clouds.8 mph55%29.80 "HgN/A
2:50 PM82 °FScattered clouds.6 mph55%29.80 "HgN/A
2:20 PM84 °FPassing clouds.7 mph48%29.80 "HgN/A
1:50 PM82 °FScattered clouds.7 mph55%29.83 "HgN/A
1:20 PM82 °FScattered clouds.8 mph55%29.83 "HgN/A
12:50 PM82 °FPassing clouds.6 mph55%29.83 "HgN/A
12:20 PM82 °FPassing clouds.6 mph55%29.83 "HgN/A
11:50 AM81 °FPassing clouds.7 mph62%29.83 "HgN/A
11:20 AM81 °FPassing clouds.8 mph62%29.83 "HgN/A
10:50 AM79 °FPassing clouds.8 mph65%29.83 "HgN/A
10:20 AM77 °FSunny.9 mph69%29.83 "Hg10 mi
9:50 AM75 °FPassing clouds.8 mph74%29.86 "HgN/A
9:20 AM75 °FPassing clouds.5 mph78%29.86 "HgN/A
8:50 AM73 °FClear.7 mph83%29.86 "Hg6 mi
8:20 AM72 °FClear.8 mph88%29.86 "Hg5 mi
7:50 AM70 °FClear.7 mph88%29.86 "Hg4 mi
7:20 AM68 °FClear.6 mph88%29.86 "Hg4 mi
6:50 AM68 °FClear.5 mph88%29.86 "Hg5 mi
6:20 AM66 °FClear.7 mph88%29.86 "Hg5 mi
5:50 AM66 °FClear.6 mph88%29.86 "Hg10 mi
8:50 PM
Jul 28
79 °FPassing clouds.10 mph58%29.86 "HgN/A
8:20 PM79 °FPassing clouds.12 mph58%29.86 "HgN/A
7:50 PM81 °FSunny.10 mph54%29.86 "Hg10 mi
7:20 PM81 °FSunny.12 mph54%29.86 "Hg10 mi
Weather by CustomWeather, © 2014

See weather overviewHow to use our weather pages